Probability
0 0 0 0 0 0 0 0 0 0 0 0 0 0 0 0 0 0 1 6 13 16 12 10 8 5 1 0 0 0 1 2 2 2 2 2 2 2 1 0 0 0 0 0 0 0 0 0 0
0 0 0 0 0 0 0 0 0 0 0 0 0 0 0 0 0 0 3 11 19 21 16 11 10 8 3 1 1 0 0 1 1 1 1 1 1 1 0 0 0 0 0 0 0 0 0 0 0
0 0 0 0 0 0 0 0 0 0 0 0 0 0 0 0 1 2 9 22 31 28 20 15 15 13 7 4 3 1 0 0 0 0 0 0 0 0 0 0 0 0 0 0 0 0 0 0 0
0 0 0 0 0 0 0 0 0 0 0 0 0 2 3 5 9 12 19 30 36 32 23 19 19 16 12 8 5 3 1 0 0 0 0 0 0 0 0 0 0 0 0 0 0 0 0 0 0
0 0 0 0 0 0 0 0 0 0 0 0 2 5 8 13 22 25 25 28 34 33 25 19 18 17 14 12 9 6 3 1 0 0 0 0 0 0 0 0 0 0 0 0 0 0 0 0 0
0 0 0 0 0 0 0 0 0 0 0 1 4 7 9 15 24 26 25 27 32 35 28 20 16 14 14 15 14 10 6 3 1 0 0 0 0 0 0 0 0 0 0 0 0 0 0 0 0
0 0 0 0 0 0 0 0 0 0 0 1 4 8 8 11 17 22 26 31 35 37 32 23 15 12 12 14 15 13 9 5 2 0 0 0 0 0 0 0 0 0 0 0 0 0 0 0 0
0 0 0 0 0 0 0 0 0 0 0 1 3 6 7 12 20 27 32 35 36 35 33 26 17 13 11 12 13 12 9 6 3 1 0 0 0 0 0 0 0 0 0 0 0 0 0 0 0
0 0 0 0 0 0 0 0 0 0 0 0 2 5 11 20 32 39 41 39 35 32 30 26 20 16 14 13 12 10 8 6 4 3 1 0 0 0 0 0 0 0 0 0 0 0 0 0 0
0 0 0 0 0 0 0 0 0 0 0 1 3 8 16 28 38 43 45 43 37 30 26 22 20 18 17 16 15 12 8 6 4 4 2 0 0 0 0 0 0 0 0 0 0 0 0 0 0
0 0 0 0 0 0 0 0 0 0 1 2 7 12 17 26 34 39 43 43 37 31 25 19 17 16 16 17 18 15 9 5 4 3 1 0 0 0 0 0 0 0 0 0 0 0 0 0 0
0 0 0 0 0 0 0 0 0 0 1 4 9 14 17 19 24 31 40 43 38 32 26 19 14 12 13 14 15 13 9 5 2 1 0 0 0 0 0 0 0 0 0 0 0 0 0 0 0
0 0 0 0 0 0 0 0 0 0 2 4 9 14 14 14 18 27 41 50 46 36 27 21 15 11 9 9 9 8 5 3 1 0 0 0 0 0 0 0 0 0 0 0 0 0 0 0 0
0 0 0 0 0 0 0 0 0 0 1 3 7 8 9 11 17 28 46 60 57 43 30 22 15 10 7 5 3 2 2 1 0 0 0 0 0 0 0 0 0 0 0 0 0 0 0 0 0
0 0 0 0 0 0 0 0 1 1 2 3 5 7 8 12 21 33 50 66 67 53 36 23 14 10 9 5 2 1 0 0 0 0 0 0 0 0 0 0 0 0 0 0 0 0 0 0 0
0 0 0 0 0 0 0 2 4 4 3 4 7 11 15 18 26 37 52 68 74 66 49 35 28 24 21 15 8 3 2 1 1 0 0 0 0 0 0 1 1 1 0 0 0 0 0 0 0
0 0 0 0 0 0 1 5 8 9 8 10 13 18 23 27 34 42 54 68 78 75 65 58 54 50 45 36 24 15 11 9 5 3 2 2 2 1 1 2 3 2 1 0 0 0 0 0 0
0 0 0 0 0 1 4 8 14 16 16 19 23 27 33 38 44 50 58 68 79 80 75 72 72 70 65 57 48 36 27 20 14 9 6 5 6 4 2 2 4 4 4 2 0 0 0 0 0
0 0 0 0 1 3 9 15 21 24 25 27 31 37 44 50 53 58 62 66 73 75 72 73 75 75 72 68 63 53 39 27 20 14 11 10 9 7 4 3 4 4 5 3 1 0 0 0 0
0 0 0 1 2 6 13 21 26 29 31 33 37 44 51 55 57 60 61 60 61 60 60 63 68 70 71 69 63 53 41 30 21 15 12 11 11 9 7 6 4 4 4 3 1 0 0 0 0
0 0 0 1 3 6 11 18 25 31 34 37 40 44 48 51 53 54 53 50 48 47 46 48 53 60 65 65 59 49 40 31 23 15 10 9 9 8 8 7 5 4 3 3 2 2 1 1 0
0 0 0 1 2 4 6 10 18 27 34 38 39 40 39 40 40 40 39 38 36 36 35 33 35 43 51 55 53 47 37 28 21 13 8 5 5 5 5 5 5 4 3 2 2 3 2 1 0
0 0 0 0 1 1 2 4 9 18 27 33 34 31 28 25 22 22 23 23 23 24 25 23 24 28 34 40 43 38 29 20 14 9 6 4 3 3 3 3 3 2 1 1 1 2 2 1 1
0 0 0 0 0 0 1 1 4 11 19 25 24 20 17 13 9 9 10 10 10 12 15 18 18 21 23 26 27 24 18 12 9 6 4 3 3 3 3 2 1 0 0 0 0 1 1 1 0
0 0 0 0 0 0 0 1 4 10 17 19 15 11 9 7 5 4 4 4 4 6 9 12 13 14 15 15 16 14 11 8 6 4 3 3 3 2 1 1 0 0 0 0 0 0 0 0 0
0 0 0 0 0 0 0 1 4 10 15 13 9 6 5 4 4 3 3 3 3 4 6 7 7 8 8 9 9 8 6 5 3 3 2 2 2 1 0 0 0 0 0 0 0 0 0 0 0
0 0 0 0 0 0 0 1 3 7 8 6 4 4 3 3 2 2 1 1 1 3 4 4 3 4 4 4 4 3 2 1 1 1 1 1 1 0 0 0 0 0 0 0 0 0 0 0 0
0 0 0 0 0 0 0 0 1 3 3 3 2 2 1 1 1 1 0 0 0 1 1 1 1 1 2 1 1 0 0 0 0 0 0 0 0 0 0 0 0 0 0 0 0 0 0 0 0
0 0 0 0 0 0 0 0 1 2 2 1 1 1 0 0 0 0 0 0 0 0 0 0 0 0 0 0 0 0 0 0 0 0 0 0 0 0 0 0 0 0 0 0 0 0 0 0 0
0 0 0 0 0 0 0 0 1 2 1 1 0 0 0 0 0 0 0 0 0 0 0 0 0 0 0 0 0 0 0 0 0 0 0 0 0 0 0 0 0 0 0 0 0 0 0 0 0
Wind_Speed
10 7 1 3 5 3 3 5 2 1 1 2 2 2 2 4 6 4 3 15 18 18 15 18 19 19 20 20 19 19 18 18 17 16 16 16 16 15 14 14 14 13 13 13 12 12 12 12 12
5 4 3 4 4 1 5 3 3 3 4 4 3 2 2 4 2 6 7 14 20 19 15 16 20 20 20 20 20 19 18 18 17 16 16 15 15 14 14 13 13 12 12 11 11 11 11 11 11
5 1 2 3 3 6 6 4 4 3 4 5 3 2 2 4 4 5 9 17 17 16 14 17 21 20 20 20 20 19 19 18 17 16 16 15 14 13 13 13 12 12 11 10 10 10 9 9 9
3 4 3 2 7 7 6 5 4 2 1 4 6 1 4 4 3 9 17 18 17 15 14 17 21 21 20 20 20 19 19 18 17 16 15 14 14 13 12 12 11 11 10 10 9 8 7 7 6
3 3 1 3 8 6 5 6 5 2 1 3 6 2 5 6 10 18 18 18 17 14 12 15 19 20 20 20 19 19 18 17 16 15 15 14 13 12 11 11 11 10 9 9 8 7 5 4 4
3 3 2 5 7 6 5 5 3 1 1 2 4 3 3 1 11 15 16 15 16 16 13 14 19 21 20 20 19 18 17 16 15 15 15 14 13 12 11 11 10 9 9 8 7 5 4 3 2
4 3 4 5 5 7 7 3 3 3 1 1 4 4 2 3 8 12 14 14 14 15 14 12 13 15 18 18 18 18 17 16 15 15 14 14 13 12 11 10 9 9 8 7 6 5 4 3 2
5 3 3 3 4 7 4 2 2 4 3 2 4 6 5 6 6 10 13 14 14 13 13 12 11 10 10 12 18 18 17 16 16 15 15 15 14 12 12 9 9 9 8 8 7 6 5 4 4
3 2 4 5 4 7 4 2 3 1 2 3 4 6 8 8 9 12 12 12 12 13 11 11 11 10 10 10 14 15 16 15 15 13 15 12 6 6 7 9 10 10 9 8 7 7 6 5 5
5 4 9 7 6 7 7 5 5 3 4 4 3 2 6 8 9 13 16 16 15 15 12 10 11 11 10 10 8 6 7 8 7 6 8 5 5 5 7 8 12 11 10 9 8 8 7 5 3
5 8 8 9 11 9 8 6 4 6 7 8 9 7 7 6 8 11 15 17 17 16 14 12 11 11 9 7 7 4 4 5 5 7 7 5 4 4 4 3 5 6 7 4 5 5 3 3 3
5 8 9 10 12 9 8 5 3 6 8 8 13 14 10 8 11 13 14 15 15 16 15 14 13 11 9 8 7 6 5 5 5 6 7 5 3 4 4 3 4 3 3 3 3 2 4 4 4
5 9 10 12 13 11 8 6 5 6 5 5 11 12 15 15 13 12 13 15 16 16 16 16 15 13 10 9 7 7 6 6 6 6 6 6 5 5 5 4 4 4 3 3 3 3 3 3 3
7 7 8 8 9 8 7 6 3 7 5 7 11 13 14 15 14 12 13 15 16 17 16 16 15 14 12 9 8 7 7 6 6 5 7 8 5 5 5 4 4 4 4 4 3 3 2 2 1
4 6 9 6 5 5 2 5 6 8 5 8 10 12 14 13 12 13 16 18 18 16 15 14 15 14 14 12 9 7 6 6 6 5 6 6 5 4 4 4 4 4 4 4 2 2 1 1 1
6 5 6 10 5 5 2 8 11 8 5 7 8 8 8 8 8 9 13 16 16 15 14 14 14 13 12 10 8 6 6 6 5 4 4 5 5 4 4 4 3 3 3 2 2 1 2 1 1
5 4 7 11 7 5 2 6 8 4 3 4 4 5 4 3 3 5 9 13 16 17 16 14 12 13 12 10 7 6 5 5 4 3 3 3 4 4 3 2 2 3 2 2 2 2 1 1 1
6 6 8 10 9 4 5 7 6 3 2 1 1 3 4 5 3 4 6 7 10 11 13 14 11 11 9 8 6 5 5 4 3 3 2 3 2 3 3 3 2 3 3 2 2 2 1 1 0
8 9 12 14 11 4 6 6 4 2 4 3 3 5 6 6 5 6 8 7 7 5 7 9 11 10 8 6 6 5 4 4 4 4 4 4 4 4 4 3 3 3 3 3 2 2 2 1 1
10 11 13 12 8 3 3 3 4 7 7 6 7 9 9 9 11 10 11 10 8 7 5 4 7 9 8 6 5 5 6 5 4 4 6 6 6 6 5 5 4 4 4 4 3 2 1 1 1
9 9 10 8 8 4 4 4 6 8 11 12 11 11 11 11 11 11 12 11 10 9 6 4 3 5 6 6 6 6 6 5 4 5 5 7 8 8 7 6 5 5 4 3 3 2 2 1 2
7 8 6 5 4 5 2 2 1 6 10 12 12 12 12 12 12 12 12 11 10 9 8 7 5 5 5 6 7 8 6 5 5 5 6 8 9 9 9 8 7 6 5 5 5 5 3 2 1
7 7 4 4 2 2 2 4 2 3 8 9 10 11 12 12 12 12 12 11 10 9 8 7 7 8 6 5 7 9 8 7 7 7 9 9 8 10 10 8 8 8 7 8 8 7 7 5 4
5 4 5 4 3 1 3 3 3 3 7 9 9 10 11 12 12 12 12 11 11 10 9 8 9 10 8 9 9 9 11 11 10 9 9 7 7 8 10 9 9 9 8 8 8 9 10 8 8
3 4 4 6 4 3 1 3 1 3 8 11 11 10 11 11 11 12 12 12 12 12 11 10 10 11 10 12 11 10 11 11 11 9 9 8 7 7 8 8 8 8 8 8 8 10 10 9 9
2 7 6 3 2 3 3 3 3 8 11 12 11 11 11 12 12 12 12 11 11 12 11 11 13 12 12 12 12 12 11 8 9 10 9 9 8 8 8 9 9 9 9 9 8 8 8 8 8
2 2 8 6 1 0 0 4 5 9 11 11 11 11 12 12 12 12 12 11 12 13 13 13 13 14 13 13 14 13 13 12 12 11 10 9 8 9 10 9 9 9 9 9 8 8 7 7 7
4 3 4 4 3 1 1 4 5 10 10 10 11 11 11 11 12 12 11 11 11 12 13 14 14 14 14 13 13 13 14 13 12 12 12 11 10 9 9 9 9 8 8 8 8 7 7 7 6
2 2 3 3 3 4 1 1 1 11 12 13 12 11 11 11 11 11 11 10 11 12 13 12 13 14 14 13 13 14 13 12 12 11 11 10 9 9 8 8 8 8 7 7 6 6 6 7 6
2 1 3 4 2 3 4 1 4 9 12 14 14 12 11 11 11 10 10 10 11 12 12 12 12 13 12 12 13 13 12 11 11 10 9 8 8 8 7 7 8 8 7 6 6 6 6 5 5
Wind_Direction
314 308 313 71 55 47 257 253 198 205 166 140 130 122 235 198 186 203 158 147 142 146 153 153 148 142 137 132 129 126 123 119 115 112 109 107 107 106 106 106 106 106 106 105 103 101 100 100 100
309 314 35 67 97 245 269 238 196 195 162 114 61 40 298 266 162 119 124 148 144 146 150 153 149 144 140 137 134 132 129 126 122 119 116 114 113 111 111 110 109 109 108 107 105 102 99 97 96
304 266 82 90 165 193 230 247 218 205 155 121 84 6 287 248 142 134 142 142 139 144 149 154 151 147 143 141 139 137 135 132 129 126 123 121 119 117 116 115 114 113 112 111 109 106 101 96 92
2 30 51 122 235 229 220 250 244 210 83 108 106 12 282 264 166 140 139 141 140 144 149 154 153 149 147 145 143 142 140 138 135 133 130 127 125 123 122 121 120 119 117 116 115 111 106 101 94
58 82 58 255 249 256 254 250 232 187 104 91 108 114 313 328 116 132 141 144 143 143 148 155 153 151 150 148 147 146 145 143 141 138 136 133 131 130 129 128 128 128 127 125 124 120 113 106 98
44 81 161 241 260 270 265 253 220 223 94 80 110 109 297 127 130 142 144 146 146 145 147 153 155 154 153 152 150 149 148 147 145 143 140 139 137 136 136 137 138 138 138 138 138 137 135 131 121
131 130 208 231 260 272 265 264 190 178 190 161 136 101 313 217 155 147 147 144 143 144 147 151 156 157 156 154 152 151 151 150 148 147 146 144 144 144 146 147 149 151 152 155 159 165 173 186 211
152 129 248 244 257 269 263 251 224 162 199 163 128 140 191 216 163 146 144 141 141 145 149 153 153 152 152 154 156 155 155 154 153 152 152 151 152 154 156 157 163 166 171 175 181 190 203 220 241
117 105 241 246 249 267 281 277 281 273 164 203 163 177 181 175 156 146 144 140 144 149 153 154 154 153 150 152 160 159 159 159 157 158 158 154 152 156 164 175 178 182 186 191 196 206 218 234 252
133 181 232 229 235 258 272 255 222 187 213 222 188 162 148 151 156 159 160 156 156 157 159 157 155 155 154 159 152 155 158 158 156 157 158 154 160 173 181 192 192 194 198 202 208 218 229 241 254
184 207 237 250 253 251 262 265 220 182 212 205 173 161 150 165 176 177 172 166 163 161 161 161 159 158 160 153 152 155 152 155 158 163 164 164 169 185 194 189 199 203 206 209 220 227 228 233 244
230 249 240 249 255 255 251 242 228 212 222 189 165 158 160 191 197 187 178 170 164 164 165 164 164 163 164 154 160 160 159 166 170 177 176 172 178 189 190 190 192 195 200 201 217 222 226 233 246
253 254 256 251 252 247 246 233 225 234 237 150 151 158 172 195 206 196 179 170 167 169 169 169 169 169 163 157 167 168 169 176 179 181 186 184 185 189 186 191 190 197 198 198 210 222 229 229 244
251 265 274 269 260 251 240 250 218 242 200 165 170 179 188 197 199 188 174 171 174 174 173 172 172 171 164 167 173 172 174 176 181 185 192 192 190 185 180 184 186 198 199 201 202 202 203 211 218
283 308 310 288 266 254 227 283 254 244 206 190 194 194 195 200 197 189 180 174 175 173 171 174 174 170 169 171 175 171 174 171 180 188 193 191 186 179 172 173 182 193 185 183 177 181 154 147 120
355 349 309 293 284 274 167 261 271 260 219 213 207 202 194 196 195 194 184 174 171 168 168 174 175 169 170 168 167 163 165 166 177 179 180 182 177 169 161 159 168 168 153 152 142 135 115 105 93
352 308 283 291 281 267 220 250 282 286 204 231 209 186 171 149 146 176 176 175 173 169 168 172 167 165 166 159 154 151 149 151 156 154 162 173 167 159 143 136 132 126 119 114 122 100 116 119 107
259 271 278 277 278 264 244 249 282 351 108 180 152 125 107 91 98 126 133 155 167 165 165 164 160 159 155 147 133 121 113 118 114 122 128 138 134 122 122 114 108 105 98 86 85 99 84 103 131
245 262 271 274 276 267 238 237 266 26 62 66 70 84 80 74 59 79 89 101 113 123 141 153 153 151 149 149 145 136 131 118 101 88 79 81 82 87 93 94 79 73 80 83 89 108 89 58 81
247 258 270 285 294 282 198 173 86 61 59 64 78 80 76 67 56 59 65 72 82 87 93 123 141 149 150 152 147 132 119 101 91 83 69 62 65 66 74 77 78 73 79 68 56 72 105 64 53
257 243 253 270 313 352 84 49 81 69 70 68 68 73 69 70 66 62 61 60 73 75 61 70 94 121 128 130 124 115 104 97 87 73 64 57 63 65 68 70 75 72 74 71 53 49 85 105 40
272 261 253 273 317 300 69 115 57 92 73 66 63 63 62 60 59 58 57 53 56 64 70 58 52 74 97 119 130 127 120 114 97 89 80 66 59 59 59 60 62 64 65 62 52 49 52 80 66
252 266 272 283 255 301 5 114 223 111 94 82 73 68 65 60 58 53 51 52 51 53 63 73 67 60 55 84 115 118 112 107 104 99 89 75 61 58 59 58 61 59 60 59 57 56 56 57 60
266 330 343 19 70 304 256 134 223 187 140 118 92 78 73 71 65 59 55 52 50 51 56 58 68 69 64 69 82 103 113 115 112 105 96 83 71 62 60 63 63 62 61 62 63 63 63 64 66
23 75 20 1 10 271 277 111 201 99 113 116 107 91 78 74 70 63 58 52 49 50 55 59 70 74 71 72 74 85 96 102 103 103 97 92 80 69 59 64 66 65 63 64 67 68 65 62 64
274 137 153 189 238 296 11 88 74 84 93 96 96 91 82 75 71 67 60 56 53 52 55 63 71 71 72 77 77 78 84 90 90 89 92 90 87 80 72 70 69 68 67 67 65 66 64 63 63
262 209 174 150 188 21 80 110 102 101 103 101 95 89 83 77 72 69 64 58 56 57 59 64 71 72 73 77 79 78 81 84 87 87 86 86 87 86 77 72 70 65 63 62 63 64 60 61 59
180 199 87 108 147 246 243 162 170 150 133 117 106 95 89 83 76 72 67 63 61 63 64 64 69 73 73 74 79 82 80 82 86 87 85 84 81 79 79 75 71 66 62 62 65 63 58 60 54
357 35 90 111 152 150 193 282 309 160 145 129 114 103 97 91 85 80 76 70 69 68 69 70 70 72 73 75 80 82 82 84 84 84 84 84 81 77 74 74 73 67 61 56 61 61 61 61 53
127 169 139 143 212 146 136 349 22 131 128 121 114 108 101 96 92 88 85 80 75 73 72 72 73 75 76 79 82 83 83 84 84 83 81 81 81 78 76 73 70 65 58 51 54 58 56 59 55